GFSCGP_prec_pwat_288.txt.gz
Precipitable_Water
0.33 0.25 0.20 0.23 0.25 0.25 0.23 0.20 0.19 0.24 0.30 0.26 0.24 0.23 0.23 0.24 0.25 0.28 0.34 0.38 0.40 0.41 0.46 0.46 0.45 0.44 0.52 0.69 0.74 0.80 0.86 0.94 0.99 0.98 0.95 0.95 0.90 0.91 0.91 0.93 0.94 0.92 0.91 0.89
0.23 0.16 0.24 0.30 0.29 0.27 0.24 0.20 0.21 0.27 0.31 0.29 0.26 0.24 0.25 0.24 0.23 0.25 0.26 0.28 0.33 0.41 0.47 0.50 0.51 0.49 0.49 0.55 0.68 0.81 0.89 0.97 1.02 1.04 1.05 1.05 1.01 0.98 0.96 0.97 0.96 0.96 0.95 0.92
0.17 0.18 0.24 0.23 0.23 0.20 0.21 0.18 0.20 0.21 0.28 0.30 0.26 0.20 0.22 0.24 0.27 0.30 0.34 0.38 0.38 0.36 0.39 0.48 0.52 0.55 0.57 0.56 0.64 0.77 0.89 0.99 1.06 1.08 1.10 1.08 1.08 1.03 0.98 0.96 0.95 0.97 0.98 0.96
0.20 0.25 0.20 0.19 0.18 0.21 0.16 0.23 0.23 0.22 0.20 0.15 0.24 0.10 0.16 0.23 0.25 0.29 0.33 0.34 0.38 0.40 0.42 0.44 0.50 0.54 0.59 0.62 0.72 0.80 0.90 0.99 1.07 1.12 1.10 1.06 1.01 0.93 0.98 0.99 1.00 1.01 1.02 0.99
0.17 0.21 0.19 0.16 0.17 0.22 0.18 0.25 0.23 0.23 0.21 0.19 0.17 0.12 0.11 0.21 0.20 0.25 0.30 0.34 0.38 0.42 0.44 0.45 0.48 0.54 0.61 0.69 0.76 0.85 0.93 0.99 1.07 1.12 1.14 1.11 1.07 1.06 1.06 1.04 1.00 0.99 1.00 1.00
0.22 0.29 0.26 0.20 0.22 0.23 0.26 0.23 0.23 0.23 0.20 0.11 0.12 0.11 0.08 0.12 0.15 0.22 0.28 0.33 0.37 0.40 0.45 0.49 0.54 0.58 0.61 0.68 0.75 0.81 0.86 0.91 1.03 1.07 1.09 1.07 1.05 1.02 0.99 0.99 0.93 0.97 0.98 0.94
0.21 0.24 0.29 0.30 0.21 0.27 0.23 0.17 0.12 0.11 0.10 0.07 0.14 0.13 0.09 0.15 0.21 0.23 0.25 0.29 0.34 0.38 0.41 0.44 0.47 0.51 0.57 0.61 0.66 0.71 0.75 0.78 0.86 0.90 0.92 0.95 0.97 0.98 0.95 0.94 0.91 0.87 0.83 0.81
0.13 0.13 0.24 0.28 0.23 0.19 0.20 0.17 0.09 0.06 0.06 0.07 0.16 0.09 0.09 0.22 0.27 0.29 0.30 0.32 0.35 0.36 0.39 0.41 0.44 0.46 0.49 0.52 0.56 0.60 0.61 0.62 0.66 0.67 0.68 0.72 0.75 0.77 0.80 0.79 0.77 0.75 0.74 0.77
0.15 0.13 0.28 0.27 0.27 0.26 0.22 0.17 0.18 0.12 0.15 0.10 0.11 0.14 0.21 0.26 0.25 0.28 0.29 0.32 0.34 0.36 0.38 0.41 0.43 0.45 0.46 0.46 0.47 0.49 0.51 0.53 0.56 0.59 0.62 0.64 0.68 0.69 0.68 0.68 0.68 0.69 0.71 0.72
0.20 0.13 0.24 0.28 0.30 0.29 0.24 0.26 0.15 0.16 0.09 0.08 0.11 0.12 0.09 0.17 0.21 0.26 0.28 0.31 0.34 0.37 0.39 0.41 0.43 0.44 0.45 0.46 0.46 0.46 0.47 0.47 0.49 0.51 0.53 0.54 0.56 0.58 0.60 0.61 0.62 0.64 0.68 0.71
0.21 0.18 0.21 0.28 0.23 0.18 0.21 0.19 0.19 0.18 0.15 0.09 0.09 0.11 0.20 0.19 0.24 0.25 0.30 0.34 0.36 0.38 0.40 0.42 0.43 0.45 0.45 0.44 0.43 0.42 0.43 0.43 0.43 0.45 0.46 0.45 0.46 0.48 0.48 0.48 0.50 0.52 0.57 0.62
0.26 0.21 0.18 0.21 0.30 0.32 0.26 0.21 0.20 0.13 0.13 0.16 0.14 0.13 0.28 0.29 0.32 0.33 0.35 0.37 0.39 0.40 0.41 0.42 0.42 0.42 0.41 0.40 0.39 0.39 0.40 0.40 0.42 0.43 0.42 0.40 0.39 0.39 0.37 0.36 0.35 0.36 0.36 0.40
0.29 0.23 0.18 0.20 0.27 0.32 0.27 0.26 0.24 0.22 0.22 0.17 0.14 0.14 0.30 0.33 0.34 0.37 0.37 0.40 0.40 0.41 0.41 0.42 0.41 0.40 0.39 0.39 0.39 0.40 0.41 0.43 0.44 0.42 0.40 0.39 0.38 0.36 0.34 0.33 0.34 0.35 0.35 0.36
0.35 0.26 0.20 0.15 0.17 0.24 0.23 0.24 0.25 0.23 0.18 0.16 0.16 0.17 0.25 0.30 0.32 0.36 0.39 0.41 0.42 0.42 0.41 0.41 0.40 0.39 0.39 0.40 0.40 0.40 0.40 0.41 0.40 0.39 0.38 0.36 0.35 0.34 0.34 0.34 0.34 0.34 0.35 0.34
0.36 0.25 0.27 0.27 0.26 0.26 0.24 0.23 0.25 0.23 0.20 0.18 0.18 0.20 0.26 0.31 0.34 0.38 0.42 0.43 0.42 0.42 0.40 0.39 0.38 0.37 0.38 0.37 0.37 0.36 0.36 0.36 0.36 0.35 0.34 0.33 0.34 0.34 0.35 0.34 0.34 0.34 0.33 0.32
0.39 0.28 0.29 0.27 0.31 0.30 0.26 0.28 0.27 0.26 0.27 0.27 0.28 0.26 0.35 0.40 0.43 0.43 0.43 0.42 0.40 0.40 0.40 0.39 0.38 0.37 0.35 0.35 0.35 0.35 0.36 0.37 0.37 0.35 0.34 0.35 0.35 0.35 0.35 0.34 0.33 0.32 0.31 0.31
0.37 0.34 0.30 0.25 0.32 0.30 0.25 0.26 0.29 0.30 0.32 0.30 0.25 0.30 0.40 0.40 0.42 0.43 0.43 0.43 0.41 0.41 0.40 0.38 0.37 0.37 0.38 0.37 0.38 0.37 0.37 0.37 0.35 0.34 0.34 0.35 0.34 0.33 0.32 0.32 0.31 0.30 0.29 0.29
0.35 0.34 0.34 0.29 0.32 0.22 0.30 0.38 0.37 0.33 0.34 0.37 0.36 0.37 0.39 0.41 0.45 0.46 0.48 0.45 0.42 0.41 0.39 0.39 0.39 0.38 0.40 0.41 0.39 0.38 0.37 0.35 0.35 0.35 0.34 0.34 0.32 0.31 0.30 0.28 0.26 0.26 0.26 0.25
0.47 0.40 0.33 0.29 0.29 0.31 0.32 0.35 0.36 0.34 0.32 0.39 0.37 0.39 0.42 0.45 0.46 0.46 0.49 0.46 0.44 0.43 0.43 0.42 0.42 0.41 0.41 0.40 0.38 0.37 0.36 0.35 0.34 0.32 0.32 0.31 0.30 0.27 0.26 0.24 0.23 0.23 0.22 0.22
0.46 0.46 0.38 0.35 0.27 0.22 0.30 0.39 0.44 0.42 0.28 0.41 0.44 0.44 0.44 0.45 0.37 0.40 0.46 0.46 0.46 0.46 0.45 0.44 0.45 0.44 0.41 0.39 0.39 0.36 0.33 0.32 0.30 0.29 0.29 0.28 0.27 0.25 0.23 0.23 0.22 0.22 0.21 0.21
0.35 0.37 0.34 0.34 0.31 0.33 0.40 0.43 0.45 0.29 0.28 0.40 0.42 0.42 0.42 0.40 0.43 0.47 0.48 0.48 0.51 0.51 0.50 0.50 0.46 0.41 0.38 0.37 0.34 0.31 0.28 0.27 0.28 0.28 0.26 0.24 0.24 0.23 0.22 0.22 0.22 0.21 0.20 0.20
0.31 0.31 0.32 0.35 0.31 0.26 0.44 0.44 0.35 0.39 0.42 0.42 0.43 0.44 0.44 0.45 0.48 0.50 0.52 0.52 0.52 0.49 0.45 0.41 0.37 0.36 0.35 0.32 0.29 0.27 0.25 0.25 0.26 0.25 0.23 0.20 0.20 0.19 0.19 0.19 0.19 0.20 0.20 0.21
0.35 0.41 0.37 0.38 0.36 0.45 0.47 0.46 0.46 0.45 0.43 0.44 0.45 0.48 0.48 0.51 0.53 0.52 0.48 0.45 0.43 0.39 0.36 0.35 0.32 0.30 0.29 0.28 0.27 0.24 0.23 0.23 0.21 0.21 0.19 0.17 0.17 0.16 0.17 0.17 0.18 0.18 0.20 0.19
0.41 0.44 0.37 0.38 0.41 0.42 0.44 0.44 0.44 0.47 0.47 0.49 0.50 0.45 0.40 0.40 0.42 0.40 0.38 0.37 0.34 0.32 0.30 0.29 0.28 0.26 0.24 0.25 0.24 0.23 0.21 0.20 0.18 0.17 0.17 0.16 0.15 0.15 0.16 0.17 0.19 0.19 0.20 0.20
0.40 0.42 0.39 0.38 0.41 0.45 0.47 0.47 0.46 0.45 0.44 0.40 0.38 0.37 0.35 0.35 0.34 0.33 0.31 0.29 0.28 0.28 0.27 0.26 0.24 0.23 0.22 0.22 0.22 0.21 0.20 0.19 0.17 0.16 0.16 0.16 0.16 0.15 0.15 0.17 0.18 0.20 0.22 0.25
0.39 0.38 0.36 0.33 0.42 0.40 0.40 0.41 0.40 0.37 0.35 0.33 0.31 0.29 0.30 0.29 0.28 0.28 0.27 0.27 0.26 0.25 0.24 0.23 0.22 0.22 0.21 0.21 0.20 0.20 0.19 0.18 0.16 0.15 0.15 0.15 0.16 0.15 0.15 0.16 0.17 0.21 0.23 0.26

GFSCGP_prec_pwat_294.txt.gz
Precipitable_Water
0.38 0.29 0.21 0.23 0.27 0.28 0.26 0.23 0.22 0.25 0.30 0.26 0.25 0.26 0.29 0.33 0.34 0.33 0.34 0.36 0.38 0.39 0.45 0.49 0.51 0.54 0.62 0.76 0.79 0.82 0.85 0.92 0.93 0.90 0.89 0.90 0.89 0.93 0.94 0.96 1.00 1.02 1.02 1.00
0.33 0.25 0.31 0.31 0.30 0.27 0.26 0.24 0.24 0.28 0.31 0.28 0.27 0.25 0.30 0.31 0.31 0.31 0.31 0.34 0.39 0.43 0.46 0.48 0.51 0.51 0.48 0.67 0.77 0.81 0.84 0.92 0.95 0.96 1.00 1.01 0.99 0.99 1.00 1.01 1.03 1.06 1.06 1.06
0.28 0.29 0.36 0.31 0.28 0.26 0.27 0.24 0.24 0.24 0.29 0.30 0.26 0.22 0.24 0.28 0.30 0.30 0.30 0.30 0.32 0.33 0.38 0.46 0.50 0.53 0.57 0.57 0.76 0.81 0.85 0.92 0.99 1.03 1.06 1.06 1.07 1.04 0.99 0.99 1.01 1.05 1.08 1.07
0.34 0.36 0.33 0.31 0.28 0.30 0.24 0.31 0.28 0.26 0.24 0.18 0.25 0.15 0.19 0.24 0.25 0.29 0.30 0.30 0.32 0.35 0.38 0.42 0.46 0.50 0.55 0.59 0.70 0.86 0.91 0.94 1.02 1.08 1.06 1.04 1.01 0.97 1.02 1.05 1.09 1.10 1.09 1.05
0.29 0.31 0.31 0.30 0.31 0.34 0.29 0.34 0.31 0.29 0.26 0.23 0.22 0.18 0.18 0.22 0.22 0.26 0.31 0.32 0.35 0.40 0.42 0.43 0.48 0.52 0.57 0.63 0.67 0.77 0.89 0.95 1.03 1.09 1.11 1.10 1.07 1.09 1.10 1.10 1.08 1.06 1.07 1.07
0.31 0.35 0.35 0.33 0.36 0.36 0.36 0.32 0.32 0.31 0.28 0.17 0.19 0.18 0.14 0.17 0.19 0.22 0.28 0.32 0.36 0.40 0.43 0.47 0.52 0.55 0.58 0.65 0.68 0.72 0.77 0.85 0.98 1.06 1.11 1.11 1.08 1.08 1.07 1.08 1.07 1.03 1.02 0.97
0.30 0.29 0.34 0.35 0.30 0.35 0.32 0.26 0.20 0.19 0.18 0.13 0.19 0.16 0.14 0.16 0.20 0.24 0.25 0.30 0.35 0.39 0.42 0.45 0.50 0.54 0.58 0.63 0.67 0.72 0.77 0.80 0.91 0.98 1.04 1.08 1.09 1.09 1.05 1.04 0.97 0.93 0.87 0.83
0.22 0.20 0.29 0.33 0.29 0.25 0.26 0.23 0.17 0.11 0.12 0.13 0.19 0.13 0.13 0.22 0.24 0.25 0.28 0.30 0.33 0.35 0.38 0.41 0.46 0.52 0.58 0.62 0.67 0.71 0.74 0.76 0.85 0.91 0.95 1.00 1.03 1.01 0.98 0.92 0.82 0.77 0.75 0.71
0.22 0.22 0.34 0.34 0.33 0.29 0.25 0.20 0.24 0.16 0.17 0.13 0.15 0.16 0.18 0.22 0.21 0.23 0.24 0.27 0.29 0.32 0.36 0.40 0.44 0.49 0.53 0.59 0.64 0.69 0.72 0.75 0.79 0.83 0.85 0.85 0.84 0.80 0.74 0.68 0.66 0.62 0.58 0.55
0.23 0.19 0.31 0.33 0.35 0.32 0.26 0.27 0.17 0.18 0.11 0.09 0.11 0.12 0.10 0.14 0.16 0.21 0.22 0.25 0.28 0.32 0.34 0.38 0.41 0.45 0.49 0.53 0.56 0.59 0.61 0.62 0.64 0.64 0.63 0.61 0.58 0.55 0.52 0.49 0.45 0.43 0.40 0.39
0.25 0.20 0.25 0.31 0.26 0.23 0.24 0.20 0.21 0.20 0.17 0.10 0.08 0.09 0.14 0.14 0.18 0.19 0.23 0.27 0.30 0.33 0.35 0.37 0.40 0.44 0.46 0.49 0.51 0.51 0.52 0.52 0.51 0.51 0.48 0.46 0.44 0.42 0.40 0.38 0.38 0.38 0.38 0.36
0.26 0.23 0.19 0.21 0.31 0.32 0.27 0.20 0.18 0.13 0.13 0.15 0.13 0.10 0.17 0.19 0.22 0.24 0.25 0.28 0.32 0.35 0.36 0.38 0.40 0.42 0.43 0.44 0.46 0.47 0.47 0.45 0.45 0.44 0.42 0.39 0.39 0.38 0.37 0.37 0.37 0.37 0.36 0.36
0.27 0.22 0.17 0.20 0.26 0.29 0.24 0.24 0.23 0.20 0.19 0.13 0.12 0.11 0.22 0.23 0.24 0.26 0.26 0.30 0.32 0.34 0.35 0.36 0.38 0.39 0.40 0.42 0.42 0.42 0.42 0.41 0.41 0.40 0.39 0.39 0.38 0.38 0.37 0.37 0.37 0.36 0.34 0.31
0.28 0.21 0.17 0.13 0.13 0.21 0.20 0.22 0.23 0.20 0.15 0.12 0.12 0.12 0.17 0.21 0.23 0.27 0.29 0.32 0.33 0.35 0.36 0.37 0.38 0.39 0.40 0.39 0.39 0.40 0.41 0.42 0.42 0.41 0.40 0.39 0.39 0.38 0.37 0.37 0.36 0.35 0.34 0.34
0.33 0.21 0.20 0.19 0.19 0.21 0.19 0.19 0.21 0.19 0.16 0.15 0.14 0.14 0.16 0.21 0.24 0.29 0.32 0.33 0.33 0.34 0.35 0.37 0.38 0.38 0.38 0.38 0.39 0.40 0.41 0.41 0.41 0.39 0.38 0.38 0.38 0.38 0.38 0.38 0.37 0.38 0.37 0.36
0.38 0.27 0.27 0.22 0.24 0.23 0.19 0.22 0.22 0.20 0.19 0.19 0.19 0.18 0.24 0.29 0.33 0.33 0.34 0.34 0.33 0.34 0.36 0.38 0.39 0.38 0.37 0.38 0.38 0.40 0.40 0.40 0.41 0.39 0.38 0.39 0.39 0.40 0.38 0.38 0.38 0.37 0.36 0.35
0.35 0.31 0.28 0.23 0.28 0.27 0.22 0.22 0.22 0.23 0.24 0.23 0.20 0.23 0.30 0.29 0.31 0.32 0.34 0.36 0.36 0.37 0.39 0.39 0.38 0.37 0.38 0.38 0.40 0.39 0.40 0.41 0.41 0.40 0.39 0.38 0.38 0.37 0.38 0.39 0.38 0.35 0.32 0.32
0.37 0.33 0.33 0.26 0.30 0.22 0.25 0.31 0.30 0.25 0.26 0.29 0.28 0.29 0.31 0.33 0.37 0.40 0.42 0.41 0.41 0.42 0.42 0.41 0.41 0.40 0.41 0.41 0.40 0.40 0.40 0.39 0.38 0.37 0.36 0.37 0.38 0.38 0.38 0.36 0.33 0.32 0.31 0.30
0.46 0.40 0.34 0.29 0.27 0.29 0.28 0.29 0.28 0.27 0.25 0.31 0.30 0.33 0.36 0.39 0.41 0.41 0.47 0.49 0.49 0.49 0.48 0.45 0.44 0.43 0.42 0.41 0.40 0.38 0.37 0.38 0.37 0.37 0.38 0.39 0.38 0.35 0.33 0.31 0.30 0.29 0.28 0.27
0.44 0.44 0.35 0.32 0.27 0.24 0.29 0.35 0.40 0.39 0.25 0.35 0.37 0.36 0.37 0.40 0.33 0.37 0.48 0.52 0.52 0.52 0.50 0.46 0.45 0.43 0.40 0.40 0.39 0.38 0.38 0.39 0.39 0.40 0.39 0.38 0.35 0.33 0.31 0.29 0.27 0.26 0.25 0.23
0.36 0.38 0.31 0.30 0.27 0.29 0.37 0.40 0.43 0.28 0.25 0.38 0.40 0.41 0.41 0.40 0.42 0.46 0.50 0.53 0.53 0.51 0.48 0.46 0.44 0.41 0.41 0.42 0.41 0.40 0.41 0.40 0.39 0.39 0.38 0.35 0.31 0.29 0.27 0.26 0.24 0.23 0.21 0.21
0.33 0.33 0.33 0.34 0.29 0.25 0.44 0.43 0.35 0.37 0.39 0.41 0.44 0.45 0.45 0.47 0.48 0.50 0.52 0.52 0.50 0.48 0.47 0.46 0.45 0.44 0.45 0.46 0.46 0.43 0.40 0.39 0.36 0.33 0.31 0.29 0.28 0.26 0.25 0.22 0.21 0.20 0.20 0.19
0.33 0.38 0.35 0.37 0.34 0.43 0.45 0.44 0.48 0.46 0.44 0.45 0.46 0.48 0.49 0.48 0.49 0.50 0.49 0.49 0.49 0.48 0.48 0.49 0.48 0.50 0.49 0.46 0.42 0.37 0.35 0.33 0.31 0.29 0.27 0.26 0.24 0.23 0.22 0.20 0.18 0.18 0.18 0.18
0.41 0.46 0.38 0.38 0.40 0.43 0.45 0.48 0.47 0.48 0.46 0.48 0.49 0.50 0.50 0.48 0.49 0.48 0.47 0.45 0.45 0.48 0.51 0.52 0.49 0.44 0.41 0.38 0.36 0.33 0.31 0.29 0.27 0.25 0.23 0.23 0.21 0.20 0.19 0.18 0.17 0.16 0.16 0.16
0.40 0.44 0.40 0.38 0.40 0.42 0.44 0.46 0.47 0.47 0.49 0.48 0.50 0.50 0.49 0.50 0.48 0.48 0.48 0.51 0.53 0.52 0.48 0.44 0.39 0.35 0.33 0.33 0.31 0.29 0.27 0.26 0.23 0.22 0.21 0.20 0.19 0.18 0.17 0.16 0.15 0.14 0.14 0.15
0.39 0.37 0.35 0.33 0.40 0.40 0.41 0.46 0.48 0.47 0.48 0.52 0.52 0.52 0.51 0.49 0.51 0.52 0.50 0.49 0.46 0.41 0.36 0.33 0.32 0.31 0.29 0.28 0.27 0.26 0.25 0.23 0.21 0.19 0.18 0.17 0.16 0.15 0.14 0.13 0.12 0.14 0.14 0.15

GFSCGP_prec_pwat_297.txt.gz
Precipitable_Water
0.36 0.28 0.23 0.22 0.25 0.24 0.23 0.18 0.20 0.20 0.28 0.21 0.20 0.21 0.27 0.31 0.33 0.33 0.34 0.35 0.37 0.37 0.46 0.53 0.58 0.65 0.80 0.87 0.88 0.88 0.90 0.94 0.92 0.88 0.85 0.86 0.85 0.91 0.93 0.99 1.03 1.07 1.09 1.08
0.34 0.24 0.30 0.32 0.29 0.29 0.28 0.23 0.21 0.30 0.29 0.27 0.26 0.25 0.30 0.32 0.33 0.35 0.35 0.37 0.39 0.42 0.45 0.48 0.52 0.57 0.60 0.76 0.85 0.89 0.90 0.96 0.97 0.95 0.96 0.97 0.99 1.00 0.99 1.02 1.04 1.08 1.07 1.06
0.29 0.30 0.36 0.33 0.29 0.28 0.26 0.24 0.26 0.24 0.29 0.30 0.29 0.26 0.28 0.32 0.34 0.36 0.37 0.39 0.40 0.42 0.44 0.47 0.50 0.54 0.59 0.61 0.84 0.88 0.92 0.95 1.00 1.01 1.03 1.04 1.06 1.02 0.97 0.98 1.01 1.05 1.07 1.08
0.38 0.37 0.34 0.33 0.29 0.30 0.23 0.30 0.31 0.30 0.25 0.20 0.28 0.17 0.24 0.29 0.29 0.32 0.33 0.32 0.31 0.33 0.38 0.44 0.49 0.53 0.57 0.61 0.78 0.92 0.96 0.99 1.04 1.08 1.03 0.99 0.95 0.90 0.99 1.01 1.05 1.07 1.09 1.06
0.35 0.36 0.34 0.31 0.30 0.33 0.29 0.34 0.32 0.31 0.27 0.28 0.25 0.20 0.22 0.29 0.23 0.25 0.29 0.32 0.34 0.34 0.36 0.39 0.44 0.50 0.55 0.61 0.71 0.88 0.95 0.99 1.03 1.07 1.06 1.05 1.03 1.08 1.07 1.06 1.05 1.06 1.08 1.08
0.40 0.44 0.40 0.36 0.38 0.37 0.38 0.34 0.34 0.34 0.30 0.20 0.23 0.20 0.17 0.20 0.21 0.24 0.30 0.35 0.39 0.39 0.41 0.45 0.50 0.53 0.56 0.62 0.68 0.80 0.87 0.91 0.98 1.04 1.08 1.08 1.05 1.04 1.02 1.04 1.03 1.03 1.06 1.03
0.33 0.34 0.40 0.42 0.36 0.40 0.36 0.31 0.24 0.22 0.22 0.17 0.24 0.21 0.20 0.25 0.25 0.25 0.29 0.34 0.38 0.41 0.45 0.47 0.48 0.51 0.56 0.59 0.63 0.71 0.79 0.82 0.91 0.96 1.02 1.06 1.06 1.07 1.04 1.04 1.03 1.00 0.96 0.92
0.26 0.23 0.32 0.39 0.37 0.34 0.34 0.30 0.24 0.16 0.16 0.17 0.23 0.16 0.18 0.25 0.28 0.28 0.33 0.34 0.36 0.39 0.43 0.46 0.49 0.53 0.55 0.59 0.63 0.66 0.70 0.74 0.81 0.88 0.94 1.00 1.04 1.03 1.02 1.01 0.99 0.95 0.86 0.78
0.26 0.26 0.35 0.36 0.39 0.39 0.33 0.29 0.35 0.25 0.24 0.18 0.18 0.19 0.23 0.26 0.24 0.27 0.27 0.30 0.33 0.37 0.40 0.42 0.46 0.51 0.55 0.59 0.62 0.66 0.67 0.70 0.75 0.81 0.87 0.90 0.94 0.94 0.92 0.92 0.87 0.78 0.67 0.57
0.31 0.27 0.35 0.34 0.37 0.38 0.35 0.37 0.27 0.24 0.15 0.13 0.14 0.14 0.12 0.17 0.18 0.22 0.24 0.25 0.29 0.32 0.36 0.39 0.43 0.48 0.54 0.58 0.62 0.65 0.67 0.68 0.71 0.74 0.77 0.79 0.81 0.82 0.79 0.71 0.59 0.51 0.45 0.40
0.32 0.28 0.32 0.35 0.28 0.26 0.29 0.28 0.28 0.26 0.21 0.13 0.11 0.12 0.16 0.15 0.16 0.18 0.22 0.25 0.28 0.31 0.34 0.37 0.41 0.45 0.50 0.55 0.59 0.62 0.65 0.67 0.69 0.71 0.72 0.70 0.65 0.59 0.53 0.46 0.42 0.39 0.38 0.38
0.30 0.28 0.26 0.26 0.35 0.37 0.30 0.25 0.25 0.20 0.17 0.20 0.18 0.14 0.21 0.20 0.20 0.21 0.23 0.27 0.30 0.33 0.34 0.37 0.40 0.43 0.46 0.48 0.51 0.52 0.53 0.54 0.54 0.54 0.53 0.50 0.47 0.45 0.42 0.40 0.40 0.40 0.39 0.40
0.28 0.24 0.22 0.25 0.31 0.34 0.28 0.27 0.26 0.24 0.23 0.19 0.15 0.14 0.24 0.22 0.22 0.23 0.24 0.26 0.29 0.31 0.32 0.35 0.37 0.38 0.40 0.42 0.44 0.45 0.46 0.45 0.45 0.44 0.43 0.43 0.42 0.42 0.41 0.41 0.41 0.41 0.40 0.40
0.32 0.23 0.21 0.15 0.16 0.25 0.25 0.27 0.28 0.25 0.20 0.17 0.17 0.15 0.19 0.21 0.20 0.23 0.25 0.28 0.30 0.30 0.31 0.33 0.34 0.35 0.37 0.39 0.40 0.41 0.41 0.42 0.41 0.41 0.41 0.40 0.40 0.41 0.41 0.41 0.41 0.41 0.41 0.39
0.34 0.22 0.22 0.20 0.20 0.22 0.20 0.22 0.24 0.22 0.18 0.17 0.15 0.16 0.19 0.21 0.23 0.24 0.27 0.28 0.29 0.30 0.32 0.33 0.33 0.35 0.37 0.38 0.39 0.39 0.39 0.39 0.40 0.40 0.39 0.40 0.41 0.41 0.42 0.42 0.42 0.42 0.41 0.39
0.42 0.26 0.26 0.22 0.23 0.24 0.22 0.23 0.25 0.22 0.19 0.19 0.18 0.17 0.24 0.26 0.29 0.27 0.27 0.27 0.28 0.30 0.32 0.33 0.34 0.36 0.36 0.36 0.37 0.38 0.38 0.39 0.41 0.40 0.40 0.41 0.41 0.41 0.41 0.40 0.41 0.41 0.40 0.37
0.40 0.33 0.27 0.20 0.24 0.26 0.22 0.21 0.21 0.21 0.22 0.20 0.17 0.20 0.25 0.25 0.26 0.26 0.28 0.29 0.30 0.32 0.33 0.34 0.35 0.35 0.36 0.36 0.37 0.38 0.39 0.41 0.41 0.41 0.41 0.40 0.39 0.39 0.40 0.41 0.39 0.37 0.36 0.37
0.40 0.35 0.33 0.26 0.28 0.19 0.20 0.26 0.26 0.22 0.21 0.23 0.23 0.27 0.27 0.27 0.31 0.34 0.35 0.33 0.33 0.35 0.36 0.36 0.37 0.37 0.38 0.39 0.39 0.40 0.41 0.41 0.40 0.39 0.38 0.38 0.39 0.39 0.39 0.38 0.37 0.36 0.36 0.35
0.49 0.41 0.33 0.27 0.27 0.30 0.28 0.29 0.26 0.24 0.21 0.27 0.26 0.29 0.31 0.34 0.36 0.35 0.40 0.40 0.38 0.38 0.39 0.40 0.41 0.42 0.41 0.40 0.41 0.41 0.40 0.40 0.40 0.38 0.38 0.39 0.39 0.37 0.37 0.37 0.36 0.34 0.33 0.32
0.50 0.49 0.38 0.34 0.28 0.23 0.27 0.34 0.38 0.36 0.23 0.31 0.31 0.31 0.31 0.34 0.26 0.29 0.40 0.42 0.41 0.43 0.45 0.45 0.44 0.43 0.42 0.42 0.42 0.40 0.39 0.40 0.39 0.40 0.39 0.39 0.38 0.38 0.37 0.35 0.34 0.32 0.31 0.29
0.38 0.41 0.35 0.35 0.32 0.35 0.39 0.40 0.42 0.27 0.23 0.35 0.35 0.35 0.35 0.32 0.35 0.41 0.46 0.45 0.46 0.47 0.48 0.48 0.46 0.44 0.44 0.44 0.42 0.38 0.38 0.37 0.38 0.40 0.41 0.40 0.40 0.38 0.35 0.33 0.31 0.29 0.27 0.26
0.34 0.34 0.34 0.37 0.32 0.27 0.42 0.41 0.33 0.37 0.40 0.42 0.43 0.42 0.42 0.44 0.46 0.48 0.48 0.47 0.47 0.49 0.48 0.47 0.45 0.44 0.43 0.42 0.40 0.39 0.39 0.42 0.46 0.46 0.42 0.39 0.36 0.33 0.31 0.29 0.27 0.25 0.24 0.22
0.33 0.37 0.34 0.36 0.35 0.44 0.46 0.44 0.47 0.45 0.43 0.44 0.46 0.48 0.48 0.47 0.48 0.49 0.48 0.49 0.51 0.50 0.48 0.46 0.43 0.42 0.42 0.42 0.44 0.47 0.49 0.47 0.42 0.39 0.36 0.33 0.31 0.29 0.28 0.25 0.23 0.21 0.20 0.19
0.41 0.45 0.38 0.38 0.40 0.42 0.45 0.48 0.49 0.50 0.48 0.50 0.52 0.52 0.52 0.49 0.50 0.48 0.48 0.49 0.48 0.47 0.45 0.45 0.44 0.46 0.50 0.53 0.51 0.47 0.42 0.39 0.36 0.33 0.30 0.28 0.27 0.25 0.24 0.23 0.21 0.18 0.16 0.15
0.40 0.43 0.39 0.38 0.42 0.44 0.46 0.48 0.49 0.50 0.51 0.51 0.53 0.53 0.51 0.50 0.49 0.49 0.49 0.49 0.47 0.46 0.46 0.49 0.52 0.52 0.49 0.46 0.41 0.38 0.36 0.34 0.30 0.28 0.26 0.24 0.23 0.22 0.20 0.19 0.17 0.16 0.16 0.16
0.40 0.40 0.38 0.36 0.43 0.44 0.45 0.50 0.52 0.50 0.49 0.50 0.48 0.47 0.49 0.50 0.50 0.50 0.49 0.49 0.49 0.50 0.53 0.51 0.47 0.43 0.39 0.37 0.35 0.33 0.31 0.29 0.26 0.24 0.22 0.21 0.19 0.18 0.17 0.16 0.15 0.17 0.17 0.18

GFSCGP_prec_pwat_300.txt.gz
Precipitable_Water
0.40 0.29 0.24 0.27 0.26 0.24 0.19 0.14 0.15 0.18 0.24 0.20 0.16 0.16 0.24 0.30 0.30 0.28 0.28 0.32 0.34 0.49 0.59 0.68 0.75 0.82 0.91 0.94 0.93 0.93 0.90 0.89 0.88 0.84 0.80 0.80 0.78 0.82 0.90 0.95 1.04 1.07 1.09 1.08
0.36 0.25 0.30 0.32 0.30 0.25 0.25 0.23 0.18 0.24 0.26 0.24 0.20 0.18 0.23 0.27 0.29 0.32 0.33 0.34 0.36 0.38 0.49 0.60 0.67 0.72 0.77 0.85 0.94 0.95 0.95 0.94 0.92 0.90 0.89 0.90 0.89 0.91 0.92 0.98 0.99 1.05 1.06 1.04
0.30 0.31 0.35 0.31 0.30 0.25 0.26 0.27 0.22 0.25 0.30 0.29 0.26 0.20 0.25 0.30 0.33 0.34 0.37 0.39 0.40 0.40 0.41 0.46 0.53 0.60 0.69 0.76 0.86 0.95 0.98 0.99 0.98 0.99 0.99 0.98 0.99 1.01 0.95 0.96 0.95 1.00 1.03 1.03
0.38 0.41 0.32 0.30 0.28 0.28 0.23 0.34 0.31 0.29 0.26 0.18 0.28 0.15 0.23 0.26 0.27 0.32 0.36 0.39 0.41 0.43 0.46 0.49 0.50 0.53 0.60 0.69 0.84 0.97 1.01 1.02 1.05 1.05 1.00 0.96 0.94 0.87 0.94 0.95 0.99 1.00 1.04 1.02
0.35 0.37 0.34 0.29 0.29 0.33 0.29 0.34 0.33 0.32 0.29 0.27 0.25 0.21 0.20 0.29 0.25 0.29 0.33 0.37 0.40 0.41 0.42 0.44 0.50 0.53 0.58 0.64 0.78 0.89 0.96 1.01 1.05 1.04 1.03 1.01 0.98 1.01 1.03 1.02 1.00 1.01 1.03 1.06
0.41 0.46 0.42 0.35 0.38 0.37 0.39 0.34 0.34 0.34 0.31 0.21 0.25 0.22 0.19 0.22 0.26 0.28 0.33 0.37 0.39 0.39 0.40 0.41 0.43 0.48 0.51 0.58 0.69 0.84 0.88 0.96 1.05 1.05 1.06 1.02 1.03 1.02 0.99 1.00 0.98 0.99 1.01 1.01
0.39 0.37 0.42 0.44 0.35 0.40 0.37 0.32 0.22 0.21 0.21 0.19 0.26 0.23 0.22 0.26 0.30 0.32 0.32 0.35 0.38 0.40 0.43 0.44 0.42 0.45 0.51 0.55 0.62 0.77 0.84 0.87 0.97 1.00 1.04 1.05 1.04 1.03 1.01 0.99 0.98 0.97 0.96 0.97
0.29 0.27 0.35 0.43 0.38 0.31 0.32 0.32 0.24 0.16 0.16 0.18 0.24 0.18 0.22 0.31 0.33 0.33 0.36 0.38 0.40 0.42 0.48 0.49 0.49 0.52 0.53 0.56 0.61 0.70 0.77 0.82 0.90 0.94 0.96 1.00 1.02 1.02 1.03 1.00 0.99 0.97 0.95 0.89
0.28 0.27 0.38 0.40 0.45 0.40 0.33 0.28 0.36 0.26 0.25 0.20 0.21 0.24 0.29 0.32 0.31 0.32 0.31 0.34 0.37 0.41 0.44 0.46 0.51 0.54 0.55 0.57 0.58 0.62 0.69 0.75 0.82 0.86 0.89 0.91 0.95 0.96 0.95 0.97 0.96 0.93 0.84 0.77
0.33 0.27 0.36 0.38 0.44 0.43 0.36 0.40 0.28 0.29 0.17 0.15 0.18 0.18 0.17 0.23 0.23 0.28 0.29 0.30 0.34 0.39 0.41 0.45 0.49 0.52 0.54 0.55 0.57 0.61 0.65 0.68 0.74 0.78 0.81 0.84 0.85 0.87 0.87 0.87 0.83 0.78 0.72 0.57
0.36 0.31 0.33 0.37 0.31 0.29 0.33 0.32 0.33 0.32 0.25 0.16 0.13 0.16 0.23 0.22 0.23 0.23 0.28 0.31 0.34 0.36 0.39 0.41 0.44 0.47 0.50 0.53 0.56 0.58 0.60 0.63 0.64 0.70 0.72 0.74 0.75 0.76 0.76 0.75 0.72 0.64 0.50 0.43
0.37 0.35 0.29 0.28 0.35 0.37 0.34 0.32 0.31 0.25 0.21 0.23 0.19 0.16 0.24 0.24 0.24 0.26 0.26 0.28 0.33 0.36 0.37 0.39 0.42 0.45 0.47 0.50 0.54 0.57 0.59 0.61 0.64 0.65 0.66 0.66 0.67 0.68 0.66 0.61 0.51 0.44 0.41 0.39
0.33 0.32 0.28 0.31 0.34 0.36 0.29 0.28 0.30 0.31 0.31 0.22 0.18 0.17 0.28 0.27 0.25 0.26 0.26 0.29 0.31 0.33 0.34 0.36 0.38 0.41 0.46 0.48 0.51 0.53 0.56 0.58 0.60 0.61 0.61 0.60 0.57 0.51 0.46 0.42 0.41 0.40 0.40 0.41
0.35 0.31 0.28 0.21 0.21 0.28 0.26 0.28 0.30 0.29 0.24 0.22 0.22 0.21 0.24 0.25 0.24 0.26 0.27 0.28 0.29 0.30 0.32 0.34 0.35 0.38 0.41 0.43 0.45 0.46 0.47 0.49 0.49 0.48 0.45 0.43 0.41 0.40 0.39 0.40 0.41 0.41 0.42 0.42
0.41 0.26 0.25 0.28 0.29 0.29 0.27 0.28 0.27 0.26 0.23 0.22 0.20 0.21 0.22 0.25 0.25 0.27 0.29 0.29 0.29 0.28 0.29 0.31 0.32 0.34 0.37 0.38 0.40 0.42 0.42 0.41 0.40 0.38 0.37 0.37 0.39 0.39 0.40 0.41 0.42 0.43 0.43 0.43
0.46 0.32 0.28 0.24 0.27 0.27 0.25 0.26 0.28 0.29 0.25 0.25 0.23 0.22 0.27 0.29 0.31 0.29 0.28 0.28 0.27 0.27 0.29 0.31 0.32 0.33 0.34 0.36 0.37 0.37 0.37 0.37 0.37 0.36 0.36 0.38 0.38 0.40 0.41 0.42 0.42 0.42 0.42 0.42
0.44 0.39 0.32 0.22 0.26 0.25 0.24 0.25 0.23 0.24 0.25 0.25 0.22 0.24 0.29 0.29 0.28 0.27 0.27 0.28 0.27 0.28 0.30 0.30 0.30 0.33 0.34 0.35 0.36 0.35 0.36 0.37 0.36 0.36 0.37 0.39 0.39 0.39 0.41 0.41 0.41 0.40 0.39 0.40
0.44 0.40 0.37 0.28 0.28 0.20 0.23 0.30 0.28 0.23 0.21 0.24 0.24 0.25 0.29 0.28 0.30 0.31 0.32 0.29 0.30 0.30 0.31 0.31 0.32 0.34 0.35 0.37 0.36 0.36 0.36 0.36 0.36 0.36 0.37 0.38 0.39 0.40 0.40 0.40 0.40 0.40 0.39 0.37
0.50 0.44 0.36 0.30 0.28 0.27 0.26 0.26 0.24 0.24 0.20 0.26 0.25 0.27 0.30 0.32 0.34 0.32 0.35 0.35 0.33 0.33 0.34 0.34 0.36 0.37 0.38 0.37 0.37 0.36 0.37 0.36 0.36 0.36 0.37 0.38 0.39 0.39 0.40 0.39 0.40 0.39 0.37 0.35
0.50 0.49 0.40 0.36 0.28 0.24 0.27 0.32 0.31 0.31 0.20 0.28 0.28 0.28 0.30 0.32 0.23 0.25 0.36 0.38 0.37 0.37 0.37 0.36 0.38 0.40 0.38 0.38 0.38 0.37 0.37 0.37 0.37 0.38 0.38 0.39 0.39 0.39 0.40 0.41 0.39 0.38 0.35 0.33
0.39 0.40 0.34 0.35 0.32 0.34 0.40 0.39 0.40 0.26 0.21 0.31 0.32 0.32 0.32 0.29 0.30 0.34 0.40 0.40 0.40 0.38 0.37 0.39 0.41 0.40 0.39 0.41 0.40 0.38 0.38 0.37 0.39 0.40 0.41 0.40 0.41 0.41 0.42 0.41 0.38 0.34 0.32 0.31
0.34 0.34 0.34 0.36 0.32 0.25 0.43 0.42 0.32 0.36 0.39 0.39 0.39 0.40 0.39 0.40 0.41 0.42 0.42 0.41 0.40 0.40 0.42 0.44 0.44 0.42 0.42 0.41 0.40 0.39 0.38 0.40 0.40 0.40 0.42 0.44 0.45 0.44 0.41 0.37 0.35 0.32 0.29 0.26
0.32 0.38 0.35 0.38 0.36 0.45 0.46 0.44 0.47 0.47 0.43 0.44 0.45 0.46 0.46 0.45 0.44 0.43 0.43 0.44 0.44 0.45 0.46 0.47 0.45 0.43 0.43 0.42 0.41 0.39 0.40 0.43 0.45 0.46 0.47 0.47 0.42 0.39 0.36 0.32 0.29 0.27 0.24 0.22
0.40 0.43 0.39 0.40 0.43 0.45 0.47 0.48 0.49 0.50 0.48 0.49 0.51 0.51 0.50 0.47 0.47 0.46 0.47 0.47 0.47 0.47 0.48 0.47 0.43 0.41 0.41 0.42 0.43 0.46 0.48 0.48 0.48 0.46 0.41 0.37 0.35 0.33 0.30 0.28 0.26 0.22 0.20 0.18
0.39 0.43 0.40 0.39 0.45 0.46 0.48 0.50 0.51 0.51 0.52 0.52 0.53 0.53 0.52 0.52 0.51 0.51 0.50 0.50 0.50 0.50 0.47 0.45 0.42 0.42 0.44 0.49 0.49 0.48 0.49 0.46 0.40 0.37 0.35 0.32 0.30 0.27 0.24 0.23 0.21 0.19 0.19 0.19
0.39 0.37 0.37 0.37 0.45 0.44 0.46 0.50 0.52 0.51 0.51 0.52 0.52 0.52 0.54 0.54 0.52 0.52 0.50 0.51 0.49 0.46 0.45 0.45 0.47 0.48 0.47 0.48 0.48 0.44 0.41 0.38 0.35 0.31 0.29 0.26 0.24 0.22 0.20 0.18 0.17 0.18 0.19 0.20